Location: Unspecified
(0.0000°N, 0.0000°E)
Time: 00:05:09
(UTC+00:00)

Explorer 11/Cluster Stage 4 - Visible Passes

Search period start: 29 May 2016 00:00
Search period end: 08 June 2016 00:00
Orbit: 467 x 1266 km, 28.8° (Epoch: 28 May)

Date Brightness Start Highest point End Pass type
(mag) Time Alt. Az. Time Alt. Az. Time Alt. Az.
29 May 9.5 02:13:35 18° NNE 02:13:35 18° NNE 02:15:37 10° NE visible
29 May 9.4 03:55:47 11° NW 03:58:52 14° NNW 04:02:37 10° N visible
30 May 9.7 02:04:17 14° NNE 02:04:17 14° NNE 02:05:27 10° NNE visible
30 May 9.5 03:47:03 10° NW 03:49:24 11° NNW 03:51:49 10° N visible
31 May 9.9 01:54:57 11° NNE 01:54:57 11° NNE 01:55:14 10° NNE visible
06 Jun 7.9 19:13:49 10° S 19:14:15 12° S 19:14:15 12° S visible
07 Jun 7.0 19:03:51 10° SSW 19:06:10 20° SSE 19:06:10 20° SSE visible
